sat.trackr.live / text

‹ back to catalog

DISKSAT C

NORAD 67219 · 2025-305A

PAYLOAD ACTIVE UNKNOWN

§ Identity

Operator
Country
US
Launch date
2025-12-18
Launch site
WLPIS
Launch vehicle
Mass (kg)
RCS (m²)

External: N2YO · Heavens-Above · Gunter

§ Orbital elements

Epoch: 2026-09-18T03:57:48.581568Z

Period
95.29 min
Inclination
45.0026°
Eccentricity
0.0007345
Mean motion
15.11110974 rev/d
Perigee alt
527.7 km
Apogee alt
537.9 km
Semi-major
6,910.9 km
B*
3.2895e-4
RAAN
308.5871°
Arg perigee
329.2242°
Mean anomaly
30.8204°
Rev number
4,138

§ Raw data

DISKSAT C1 67219U 25305A   26261.16514562  .00005355  00000+0  32895-3 0  99942 67219  45.0026 308.5871 0007345 329.2242  30.8204 15.11110974 41382

JSON: /api/v1/satellites/67219 · /tle

For live sub-satellite position, see the globe view (requires WebGL).

§ Visibility from observer

Set your observer location to see the next 7 days of passes ≥ 10°. The values pass through the URL so the page stays shareable.

No JS? Fill the form by hand. The geolocation button needs JavaScript.